Weather History for KDAW - February, 2014

Change the Weather History Date:

Wednesday, February 26, 2014

  Actual Average (KSFM) Record (KSFM)
Temperature  
Mean Temperature 14 °F -  
Max Temperature 28 °F 35 °F 53 °F (2002)
Min Temperature 1 °F 17 °F -14 °F (2003)
Degree Days  
Heating Degree Days 50    
Moisture  
Dew Point 0 °F    
Average Humidity 55    
Maximum Humidity 80    
Minimum Humidity 29    
Precipitation  
Precipitation 0.00 in - - ()
Sea Level Pressure  
Sea Level Pressure 29.82 in    
Wind  
Wind Speed 3 mph (West)    
Max Wind Speed 13 mph    
Max Gust Speed 23 mph    
Visibility 10 miles    
Events      
Averages and records for this station are not official NWS values.
T = Trace of Precipitation, MM = Missing Value Source: NWS Daily Summary

Daily Weather History Graph

Daily Weather History Graph

Search for Another Location

Airport or City:

Trip Planner

Search our weather history database for the weather conditions in past years. The results will help you decide how hot, cold, wet, or windy it might be!

Date:

Astronomy

Feb. 26, 2014 Rise Set
Actual Time 6:24 AM EST 5:28 PM EST
Civil Twilight 5:56 AM EST 5:57 PM EST
Nautical Twilight 5:23 AM EST 6:30 PM EST
Astronomical Twilight 4:50 AM EST 7:03 PM EST
Moon 4:12 AM EST (2/26) 2:36 PM EST (2/26)
Length of Visible Light 12h 01m
Length of Day
11h 04m
Waning Crescent, 10% of the Moon is Illuminated
Feb 26
Waning Crescent
Mar 1
New
Mar 8
First Quarter
Mar 16
Full
Mar 23
Last Quarter

Hourly Weather History & Observations

Time (EST) Temp. Windchill Dew Point Humidity Pressure Visibility Wind Dir Wind Speed Gust Speed Precip Events Conditions
12:51 AM 12.0 °F - 3.9 °F 70% 29.89 in 10.0 mi Calm Calm - N/A   Clear
1:51 AM 10.9 °F - 3.0 °F 70% 29.89 in 10.0 mi Calm Calm - N/A   Clear
2:51 AM 10.0 °F - 3.0 °F 73% 29.88 in 10.0 mi Calm Calm - N/A   Clear
3:51 AM 10.9 °F 2.9 °F 3.9 °F 73% 29.89 in 10.0 mi WSW 4.6 mph - N/A   Clear
4:51 AM 7.0 °F - 1.0 °F 77% 29.87 in 10.0 mi Calm Calm - N/A   Clear
5:51 AM 1.9 °F - -2.9 °F 80% 29.86 in 10.0 mi Calm Calm - N/A   Clear
6:51 AM 5.0 °F - -0.0 °F 80% 29.84 in 10.0 mi Calm Calm - N/A   Mostly Cloudy
7:51 AM 5.0 °F - -0.9 °F 76% 29.84 in 10.0 mi Calm Calm - N/A   Mostly Cloudy
8:51 AM 14.0 °F 6.5 °F 5.0 °F 67% 29.83 in 10.0 mi Variable 4.6 mph - N/A   Mostly Cloudy
9:51 AM 17.1 °F 11.7 °F 6.1 °F 62% 29.83 in 10.0 mi Variable 3.5 mph - N/A   Overcast
10:51 AM 23.0 °F 13.9 °F 6.1 °F 48% 29.80 in 10.0 mi SSW 8.1 mph - N/A   Clear
11:51 AM 25.0 °F 18.1 °F 5.0 °F 43% 29.77 in 10.0 mi Variable 5.8 mph - N/A   Mostly Cloudy
12:51 PM 28.0 °F 20.0 °F 7.0 °F 41% 29.73 in 10.0 mi WSW 8.1 mph - N/A   Overcast
1:51 PM 25.0 °F 18.1 °F 3.0 °F 39% 29.72 in 10.0 mi Variable 5.8 mph 20.7 mph N/A   Partly Cloudy
2:51 PM 26.1 °F 15.6 °F 1.0 °F 34% 29.72 in 10.0 mi WNW 11.5 mph 23.0 mph N/A   Mostly Cloudy
3:51 PM 24.1 °F 12.5 °F -4.0 °F 29% 29.74 in 10.0 mi WNW 12.7 mph 20.7 mph N/A   Clear
4:51 PM 21.9 °F 12.5 °F -4.0 °F 32% 29.76 in 10.0 mi West 8.1 mph 18.4 mph N/A   Partly Cloudy
5:51 PM 19.9 °F 10.1 °F -5.1 °F 33% 29.79 in 10.0 mi West 8.1 mph 18.4 mph N/A   Clear
6:51 PM 18.0 °F 9.8 °F -5.1 °F 36% 29.81 in 10.0 mi Variable 5.8 mph - N/A   Clear
7:51 PM 16.0 °F 7.4 °F -5.1 °F 39% 29.83 in 10.0 mi WNW 5.8 mph - N/A   Clear
8:51 PM 14.0 °F 3.9 °F -4.0 °F 45% 29.83 in 10.0 mi WNW 6.9 mph - N/A   Clear
9:51 PM 12.9 °F 3.8 °F -2.0 °F 51% 29.83 in 10.0 mi WNW 5.8 mph - N/A   Clear
10:51 PM 10.0 °F - -2.0 °F 58% 29.83 in 10.0 mi Calm Calm - N/A   Clear
11:51 PM 9.0 °F - -0.9 °F 64% 29.84 in 10.0 mi Calm Calm - N/A   Clear